Regional Weather Roundup
Issued by NWS State College, PA

Home | Current Version | Previous Version | Graphics & Text | Print | Product List | Glossary On
Versions: 1 2 3 4 5 6 7 8 9 10 11 12 13 14 15 16 17 18 19 20 21 22 23 24 25 26 27 28 29 30 31 32 33 34 35 36 37 38 39 40 41 42 43 44 45 46 47 48 49 50
000
ASUS41 KCTP 281910
RWRCTP

REGIONAL WEATHER ROUNDUP
NATIONAL WEATHER SERVICE STATE COLLEGE PA
300 PM EDT THU MAY 28 2015

Note: "fair" indicates few or no clouds below 12,000 feet with no
significant weather and/or obstructions to visibility.

* = STATION THAT DOES NOT REPORT PRECIPITATION /E.G. RAIN...SNOW...ETC/
    THUNDER OR FOG.

PAZ002>004-007>009-013>016-020>023-029>032-282000-
WESTERN PENNSYLVANIA

CITY           SKY/WX    TMP DP  RH WIND       PRES   REMARKS
ERIE           SUNNY     69  54  58 N3        30.28F
MEADVILLE      SUNNY     76  50  40 N3        30.29S
FRANKLIN*      SUNNY     75  54  46 NE7       30.29F
NEW CASTLE     FAIR      78  55  44 CALM      30.27F
BEAVER COUNTY  SUNNY     77  55  47 NE3       30.27F
BUTLER*        PTSUNNY   75  54  46 NE6       30.29F
PITTSBURGH INT PTSUNNY   77  56  48 VRB5      30.26F
PITTSBURGH     PTSUNNY   77  55  46 VRB3      30.25F
INDIANA*       SUNNY     77  57  50 N9        30.30S
LATROBE        PTSUNNY   77  59  53 N6        30.27F
WASHINGTON CO* PTSUNNY   75  63  64 NE6       30.27F
$$

PAZ004>006-010>012-017>019-024>028-033>037-041-042-045-046-049>053-282000-
CENTRAL PENNSYLVANIA

CITY           SKY/WX    TMP DP  RH WIND       PRES   REMARKS
BRADFORD       MOSUNNY   72  49  44 CALM      30.30S
DUBOIS         MOSUNNY   76  52  43 N8        30.28F
CLEARFIELD     MOSUNNY   78  51  38 MISG      30.27S
JOHNSTOWN      MOSUNNY   76  56  49 NW9       30.28F
ALTOONA        MOSUNNY   80  53  39 NW6       30.25F
STATE COLLEGE  SUNNY     81  50  34 NW9       30.24S
WILLIAMSPORT   SUNNY     84  53  34 VRB7      30.18S
SELINSGROVE    MOSUNNY   86  55  34 VRB6      30.19S
FT INDIANTOWN  SUNNY     83  62  48 W12       30.18F
CAPITAL CITY   PTSUNNY   85  59  41 VRB7      30.18F
HARRISBURG     MOSUNNY   85  62  46 NW12      30.17F
YORK           MOSUNNY   85  64  49 NW8       30.18S
$$

PAZ038>040-043-044-047-048-054-055-060>062-067>071-282000-
EASTERN PENNSYLVANIA

CITY           SKY/WX    TMP DP  RH WIND       PRES   REMARKS
SCRANTON       SUNNY     84  50  30 NW16G23   30.19R
MOUNT POCONO   PTSUNNY   79  57  46 W10       30.22R
ALLENTOWN      MOSUNNY   86  62  44 W13G18    30.16R
QUAKERTOWN*    MOCLDY    86  64  48 W7        30.17S
READING        MOSUNNY   87  61  41 W12       30.16S
LANCASTER      PTSUNNY   85  62  46 NW9       30.17S
COATESVILLE    PTCLDY    84  66  54 NW13      30.19S
POTTSTOWN      MOSUNNY   85  66  53 SW8       30.17S
BLUE BELL      PTSUNNY   82  70  65 S5        30.15F
DOYLESTOWN     MOSUNNY   85  64  49 W9        30.15S
WILLOW GROVE   NOT AVBL
NORTH PHILA    LGT RAIN  83  64  52 W13       30.16S
PHILADELPHIA   PTSUNNY   88  64  44 SW7       30.14S
$$


USA.gov is the U.S. government's official web portal to all federal, state and local government web resources and services.